Location: Vihti�l�
(61.3833°N, 23.0667°E)
Time: 05:02:31
(UTC+00:00)

Cosmos 2219 - Pass Details

Date: 29 November 2020
Orbit: 834 x 860 km, 71.1° (Epoch: 22 January)

Event Time Altitude Azimuth Distance (km) Brightness Sun altitude
Exits shadow 05:52:58 10° 304° (NW) 2,529 5.0 -8.0°
Reaches altitude 10° 05:53:02 10° 304° (NW) 2,508 5.0 -8.0°
Maximum altitude 05:58:12 33° 8° (N) 1,428 4.2 -7.5°
Drops below altitude 10° 06:03:23 10° 71° (ENE) 2,506 6.2 -7.0°
Sets 06:06:06 0° 81° (E) 3,440 7.2 -6.7°
